Wetbulb
33.45 26.92 21.23 24.00 25.79 26.27 24.79 24.07 23.30 25.62 28.37 26.82 25.29 26.25 31.64 32.89 30.96 30.76 31.31 31.12 32.49 33.86 36.75 37.77 38.91 39.46 39.15 38.13 37.90 37.65 37.23 36.61 35.24 33.53 33.04 32.67 32.35 32.59 32.51 32.87 34.27 34.25 33.97 35.11
27.98 23.22 28.42 30.39 29.79 28.24 27.39 23.55 21.79 26.74 27.64 25.57 23.62 24.63 30.05 29.57 28.07 28.59 29.92 29.90 30.77 31.76 34.48 36.03 36.67 37.54 38.11 37.66 37.61 37.23 37.55 36.66 36.07 34.53 33.34 32.78 31.97 31.71 32.25 32.97 33.28 33.36 34.07 35.07
26.32 27.34 32.00 29.99 27.19 26.92 24.59 23.13 21.58 22.57 25.54 23.10 20.48 22.10 25.45 26.83 28.77 29.78 29.17 29.05 29.68 30.57 33.00 33.51 35.23 35.48 35.69 36.18 36.32 37.07 37.15 36.85 35.91 35.49 33.93 32.49 32.26 31.42 31.02 31.45 31.26 32.03 33.73 34.20
27.09 30.15 29.18 27.79 25.96 25.62 22.93 25.59 25.44 24.00 17.28 12.77 20.07 13.19 22.99 23.64 26.26 27.69 29.36 28.58 28.59 28.56 30.94 32.40 33.01 33.05 33.89 34.97 34.92 35.55 35.80 35.78 35.77 34.52 33.21 32.06 31.13 30.45 30.43 29.76 30.05 30.78 32.85 32.82
24.70 26.58 26.58 25.30 26.04 27.04 24.19 26.00 24.08 20.90 10.86 12.31 14.66 8.59 20.42 22.83 25.57 27.36 27.98 28.69 28.90 28.68 29.67 31.40 32.43 33.62 33.28 33.66 32.98 33.31 33.86 34.23 34.79 34.19 33.06 31.79 30.58 30.35 29.57 28.29 28.55 30.11 31.18 31.87
26.40 27.97 26.86 26.35 27.37 27.16 26.49 22.04 20.17 16.81 7.87 6.41 5.94 8.95 18.88 23.02 24.57 25.18 26.67 27.56 29.37 29.25 29.22 30.69 31.35 32.35 32.61 32.43 32.22 32.18 32.94 33.66 34.22 33.54 32.43 31.64 30.70 30.13 27.98 27.42 28.06 28.71 29.18 29.89
23.47 25.49 27.18 28.17 24.52 26.92 22.83 12.54 6.63 8.88 6.56 9.89 0.36 8.93 19.89 25.08 26.08 25.31 27.17 28.34 28.43 29.14 29.43 29.83 30.69 31.17 31.51 31.28 30.71 30.75 31.05 31.48 32.44 32.39 31.67 31.10 30.07 28.40 27.34 27.56 28.23 28.34 28.29 28.44
10.60 13.09 19.18 27.69 24.95 21.26 20.84 12.90 9.26 0.86 4.62 8.40 1.18 7.61 22.15 24.92 26.32 26.44 26.64 26.63 28.28 28.46 28.93 29.19 30.37 30.58 30.05 29.89 29.86 30.11 30.40 30.00 30.34 30.96 30.99 29.49 28.72 27.65 27.92 28.27 28.26 27.96 27.81 28.24
11.83 14.81 25.04 26.97 26.37 23.20 18.92 9.86 17.49 3.13 -6.80 1.08 7.66 14.73 24.12 25.71 22.72 24.93 25.59 26.65 27.33 27.88 28.66 29.07 29.58 29.65 29.78 29.25 29.26 29.53 29.80 29.75 29.27 29.94 29.11 27.37 26.85 27.90 27.97 28.23 27.81 27.73 28.29 29.80
20.21 11.00 17.74 24.99 25.69 23.46 18.92 20.72 10.97 7.17 1.59 -1.65 5.68 -1.15 15.22 19.72 20.72 22.32 23.80 23.09 23.79 25.68 27.01 27.79 28.35 28.87 29.32 28.82 28.74 28.98 29.40 29.22 29.00 29.03 27.49 27.08 26.66 27.76 27.86 27.83 27.81 27.95 28.13 29.02
18.61 13.29 14.55 22.24 12.45 12.16 14.37 10.61 11.47 11.02 11.22 3.86 -0.63 10.79 15.60 14.89 12.55 16.23 20.10 21.28 16.97 19.47 22.94 24.94 27.09 27.40 28.06 28.56 28.64 29.00 28.59 28.22 27.90 28.23 26.92 26.15 27.29 27.68 27.71 27.80 27.56 27.94 28.71 29.17
24.13 19.37 8.33 14.40 19.88 21.22 20.22 14.26 17.09 11.15 4.77 5.05 8.47 11.41 17.58 14.63 11.27 7.45 18.15 20.43 20.40 16.88 21.80 23.40 26.16 26.55 26.39 27.18 28.59 28.53 28.61 27.85 27.83 26.69 25.98 26.90 27.79 27.50 26.96 26.86 27.32 28.07 28.21 29.28
25.63 11.79 1.87 11.72 15.34 19.11 15.56 19.58 17.58 12.55 15.19 6.52 6.17 12.80 15.90 10.36 11.09 13.84 14.56 23.35 28.79 30.42 27.39 25.37 24.40 25.95 27.17 27.58 28.27 28.02 27.66 28.19 27.49 26.10 25.52 26.47 26.81 26.39 26.10 26.41 27.02 27.84 27.77 27.95
30.08 20.86 10.43 8.52 9.42 10.23 12.47 17.07 19.37 15.01 3.91 11.56 14.26 19.34 21.65 25.18 21.63 22.52 27.65 24.03 27.39 27.75 28.89 29.67 29.57 28.49 27.11 27.05 27.54 28.46 27.82 27.92 27.04 25.82 25.29 25.78 26.17 26.26 25.80 26.48 26.83 27.29 27.90 27.13
24.69 10.45 17.52 16.59 13.32 10.64 15.59 14.05 15.00 14.26 14.06 13.52 19.77 16.82 17.32 24.67 25.65 26.52 25.85 24.62 26.23 26.79 28.21 29.17 29.69 30.79 31.61 28.59 28.01 27.29 27.62 27.28 26.34 24.66 24.21 24.95 25.61 25.42 25.47 26.12 26.01 26.51 27.45 27.47
25.30 9.00 12.41 10.15 20.98 21.62 19.32 21.29 19.10 18.86 20.02 18.71 20.35 19.15 24.60 21.62 16.86 20.51 23.97 25.24 24.23 24.57 25.15 27.94 28.72 29.77 30.90 31.85 30.93 30.61 27.58 25.24 23.64 23.92 23.51 20.74 21.21 21.10 21.01 24.49 24.21 25.56 26.95 26.56
20.56 11.32 8.39 3.47 11.08 9.31 5.91 12.44 18.94 17.03 10.76 17.40 11.26 15.24 11.95 13.82 17.84 18.84 23.75 24.39 20.42 20.91 22.30 25.57 26.78 28.81 30.35 31.85 32.66 29.51 27.08 14.64 19.64 21.01 17.62 18.09 17.23 19.09 19.70 22.81 22.61 23.13 27.14 29.12
20.98 15.32 12.53 7.13 2.27 -3.16 13.52 18.48 17.46 13.62 18.07 14.31 15.82 10.14 12.76 15.59 16.84 19.95 23.50 18.37 21.14 24.91 26.23 27.40 27.74 28.53 30.55 31.70 31.50 25.58 11.77 15.49 16.70 16.07 16.01 14.63 15.29 17.48 19.41 23.00 23.31 25.96 28.48 28.12
26.01 23.40 16.64 2.91 -5.63 8.65 16.53 17.52 17.03 14.59 15.02 20.69 17.28 16.81 18.89 19.73 21.43 21.50 24.25 23.97 24.95 26.37 27.35 28.32 26.94 28.93 29.37 28.72 27.99 19.99 10.18 11.91 14.03 15.48 16.11 15.14 15.83 17.40 20.16 21.79 22.17 27.51 27.34 27.52
20.83 24.86 17.56 0.96 -1.14 -3.41 13.20 17.53 20.95 20.55 11.92 20.26 20.75 20.18 19.51 20.26 13.57 18.57 24.26 26.37 27.24 28.61 28.98 29.39 29.78 28.68 27.20 29.03 22.10 15.66 12.53 10.03 15.01 17.50 17.67 15.75 15.87 18.41 21.22 20.58 23.11 27.25 24.27 27.16
16.39 17.42 15.16 14.25 10.00 9.42 17.33 19.56 19.54 5.73 12.80 21.18 21.23 20.70 20.21 17.85 20.43 23.60 25.57 25.56 26.76 27.31 27.66 29.62 28.76 27.17 28.08 26.52 22.71 21.04 19.40 15.35 20.05 18.44 15.95 14.72 15.55 18.57 21.60 22.22 25.17 17.55 25.15 26.51
7.26 1.62 1.74 4.59 4.37 8.52 18.85 18.18 11.82 19.04 21.54 21.97 21.39 21.72 21.35 22.46 23.43 24.17 24.95 25.32 25.99 25.93 27.05 28.95 27.47 27.85 29.38 29.62 25.86 24.14 23.09 23.60 20.32 18.97 18.34 17.37 17.14 19.63 20.65 19.36 16.99 18.09 25.68 24.75
8.28 12.88 7.76 10.55 10.59 19.02 20.28 20.53 22.34 23.60 21.31 21.55 21.82 23.04 23.21 23.06 23.16 24.10 24.14 24.89 25.59 25.97 26.45 27.53 27.22 27.58 29.14 29.64 26.68 26.94 28.93 22.70 19.04 17.91 18.04 16.54 17.05 19.14 20.97 20.37 19.94 23.72 24.45 21.97
13.21 15.99 13.69 11.41 14.87 18.89 20.56 23.06 23.79 23.03 21.93 23.49 24.21 24.21 24.22 22.66 24.01 23.89 24.29 24.97 25.37 25.98 25.67 26.24 25.77 25.65 26.65 29.59 28.98 29.48 29.83 21.17 16.91 18.51 17.28 16.37 16.54 17.03 18.29 21.52 21.70 22.83 20.96 19.21
14.44 12.63 7.90 13.53 18.14 16.74 19.15 19.87 21.87 23.24 23.78 23.28 24.13 23.97 23.64 24.58 24.59 24.80 24.66 23.76 24.66 25.60 25.61 25.85 25.01 25.35 26.94 29.47 31.62 32.74 29.32 21.35 20.82 20.75 18.39 17.77 17.74 17.73 17.95 20.32 21.02 21.47 20.38 20.91
18.00 15.78 14.51 14.11 21.24 19.43 20.14 22.63 23.14 21.62 21.75 22.92 22.47 22.50 24.18 24.71 24.50 24.52 22.64 22.66 22.88 23.15 24.24 24.76 24.53 24.13 25.61 27.67 30.50 32.10 30.45 22.58 22.72 21.87 19.52 19.09 18.37 17.48 18.39 18.98 17.88 26.51 26.37 26.96
MSLP
1020.77 1021.59 1022.30 1022.69 1022.50 1022.42 1022.46 1022.66 1022.81 1022.54 1022.95 1022.75 1022.08 1021.15 1019.16 1018.74 1018.83 1018.77 1018.93 1019.00 1018.89 1018.69 1018.22 1018.40 1018.70 1019.24 1019.95 1020.63 1021.20 1021.66 1022.18 1022.80 1023.34 1023.91 1024.35 1024.52 1024.60 1024.63 1024.80 1024.90 1024.89 1024.95 1024.96 1024.91
1021.92 1022.82 1023.10 1022.94 1022.91 1023.00 1023.24 1023.63 1023.91 1023.70 1023.91 1024.03 1023.36 1021.79 1019.25 1018.89 1018.68 1018.70 1018.92 1018.99 1018.81 1018.48 1018.26 1018.35 1018.71 1019.14 1019.71 1020.25 1020.99 1021.58 1022.06 1022.60 1023.04 1023.46 1023.82 1024.17 1024.45 1024.67 1024.75 1024.81 1024.85 1024.89 1024.91 1024.89
1023.15 1023.81 1023.37 1023.34 1023.81 1023.97 1024.48 1024.96 1025.31 1025.84 1025.46 1025.56 1024.97 1022.61 1020.35 1019.09 1018.64 1018.43 1018.64 1018.80 1018.80 1018.57 1018.62 1018.80 1019.09 1019.37 1019.86 1020.38 1020.92 1021.49 1021.93 1022.41 1022.89 1023.27 1023.72 1024.15 1024.42 1024.67 1024.79 1024.78 1024.90 1024.93 1024.94 1024.92
1024.39 1024.20 1024.02 1024.18 1024.84 1025.20 1025.77 1026.04 1026.52 1027.14 1027.71 1028.24 1027.34 1025.54 1021.88 1020.13 1019.18 1018.53 1018.42 1018.71 1018.78 1018.79 1018.92 1019.20 1019.51 1019.83 1020.20 1020.57 1021.04 1021.50 1021.98 1022.40 1022.72 1023.01 1023.50 1023.86 1024.29 1024.67 1024.72 1024.84 1024.95 1024.95 1024.83 1024.77
1025.52 1025.14 1025.03 1025.32 1025.93 1026.04 1026.68 1026.99 1027.79 1028.82 1029.86 1030.20 1029.48 1028.27 1022.60 1020.82 1019.53 1018.79 1018.64 1018.98 1019.18 1019.38 1019.56 1019.76 1020.01 1020.26 1020.58 1020.94 1021.37 1021.65 1021.98 1022.26 1022.51 1022.81 1023.15 1023.60 1024.06 1024.23 1024.37 1024.65 1024.76 1024.75 1024.60 1024.53
1025.92 1025.85 1026.09 1026.35 1026.58 1026.84 1027.34 1028.10 1029.19 1030.31 1031.35 1031.89 1031.17 1029.60 1024.42 1021.45 1019.99 1019.42 1019.18 1019.36 1019.60 1019.83 1020.01 1020.16 1020.32 1020.52 1020.77 1021.00 1021.34 1021.61 1021.84 1022.02 1022.26 1022.59 1022.91 1023.25 1023.67 1024.00 1024.36 1024.48 1024.59 1024.50 1024.42 1024.36
1026.82 1027.03 1027.02 1027.03 1027.25 1027.53 1028.13 1029.63 1031.14 1032.05 1032.80 1032.92 1031.79 1030.22 1024.39 1021.45 1020.53 1020.27 1020.18 1020.07 1020.06 1020.20 1020.33 1020.53 1020.75 1020.85 1020.99 1021.07 1021.32 1021.66 1021.90 1022.00 1022.16 1022.43 1022.72 1023.02 1023.34 1023.67 1023.95 1024.14 1024.30 1024.40 1024.35 1024.20
1028.72 1028.37 1028.49 1028.25 1028.57 1029.04 1029.78 1030.76 1032.40 1034.11 1035.17 1034.00 1032.34 1029.49 1023.81 1021.63 1020.86 1020.69 1020.78 1020.92 1020.78 1020.89 1021.09 1021.25 1021.13 1021.03 1021.15 1021.40 1021.54 1021.70 1021.88 1022.06 1022.18 1022.31 1022.46 1022.72 1023.04 1023.35 1023.62 1023.83 1024.05 1024.12 1024.11 1023.96
1028.82 1029.20 1029.21 1029.11 1029.21 1029.89 1030.69 1031.47 1032.38 1034.17 1036.35 1035.60 1031.96 1028.65 1024.37 1022.21 1021.68 1021.74 1021.71 1021.55 1021.54 1021.65 1021.56 1021.54 1021.45 1021.44 1021.44 1021.37 1021.48 1021.70 1021.83 1021.91 1022.11 1022.22 1022.37 1022.66 1022.90 1023.13 1023.37 1023.61 1023.79 1023.86 1023.91 1023.61
1028.93 1029.81 1030.08 1029.75 1029.81 1030.43 1030.90 1032.02 1032.84 1034.13 1035.58 1035.42 1032.77 1030.36 1026.62 1024.61 1024.03 1023.46 1023.16 1023.36 1023.11 1022.96 1022.92 1022.84 1022.43 1021.94 1021.52 1021.35 1021.34 1021.52 1021.48 1021.53 1021.68 1021.99 1021.99 1022.27 1022.55 1022.84 1023.13 1023.40 1023.59 1023.67 1023.55 1023.38
1028.71 1029.87 1030.55 1030.20 1030.34 1030.57 1031.58 1032.24 1033.19 1033.96 1034.47 1034.69 1033.69 1029.45 1025.93 1025.61 1025.62 1025.19 1024.58 1024.52 1024.11 1023.90 1023.36 1023.02 1022.36 1021.92 1021.90 1021.68 1021.55 1021.22 1021.29 1021.24 1021.41 1021.90 1021.69 1021.88 1022.32 1022.70 1022.99 1023.20 1023.26 1023.19 1023.06 1022.94
1028.49 1029.83 1030.80 1030.56 1030.38 1030.41 1030.88 1031.53 1032.15 1033.71 1034.28 1034.02 1032.87 1028.31 1025.16 1025.42 1025.44 1025.42 1024.76 1024.29 1023.90 1023.46 1022.99 1022.69 1021.84 1021.41 1021.09 1020.95 1021.07 1020.84 1020.73 1020.72 1020.85 1021.26 1021.39 1021.35 1021.62 1022.15 1022.59 1022.77 1022.74 1022.67 1022.68 1022.55
1028.05 1029.94 1031.05 1030.89 1031.27 1030.95 1031.02 1031.26 1031.70 1032.42 1032.53 1032.25 1031.44 1026.84 1024.98 1024.78 1025.08 1025.02 1025.07 1024.13 1023.52 1022.71 1022.22 1021.89 1021.42 1021.04 1020.58 1020.14 1019.86 1019.90 1020.01 1020.02 1020.30 1020.91 1021.02 1020.97 1021.12 1021.62 1022.01 1022.21 1022.32 1022.36 1022.32 1022.22
1027.71 1029.46 1030.99 1031.12 1030.95 1030.94 1031.21 1030.92 1031.03 1031.51 1032.09 1030.65 1027.37 1025.08 1025.69 1025.17 1025.19 1024.86 1024.32 1024.19 1023.75 1022.86 1022.09 1021.54 1020.87 1020.42 1019.90 1019.51 1019.22 1018.94 1018.84 1018.85 1019.20 1019.83 1020.23 1020.39 1020.46 1020.84 1021.27 1021.52 1021.69 1021.80 1021.79 1021.77
1028.42 1029.97 1030.76 1030.71 1030.71 1030.95 1030.30 1030.14 1030.36 1030.40 1029.67 1029.81 1024.03 1025.40 1025.90 1025.17 1025.35 1025.23 1024.94 1024.24 1023.42 1022.97 1022.30 1021.82 1021.25 1020.39 1019.61 1019.05 1018.44 1018.03 1017.80 1017.84 1018.02 1018.72 1019.33 1019.44 1019.73 1020.20 1020.65 1020.96 1021.16 1021.23 1021.25 1021.28
1029.18 1030.28 1031.36 1031.14 1030.45 1030.08 1029.26 1029.04 1028.65 1028.21 1028.23 1027.43 1026.44 1025.15 1025.67 1026.04 1025.94 1025.56 1025.01 1024.20 1023.88 1023.22 1022.58 1021.86 1021.11 1020.18 1019.34 1018.62 1017.90 1017.33 1017.06 1017.00 1017.39 1017.72 1018.00 1018.63 1019.37 1019.74 1020.13 1020.46 1020.72 1020.80 1020.76 1020.83
1029.91 1030.84 1032.05 1031.84 1031.02 1030.39 1029.05 1026.70 1026.50 1026.45 1026.47 1026.69 1026.64 1026.38 1026.41 1026.23 1025.91 1025.44 1024.82 1024.38 1023.77 1023.02 1022.19 1021.42 1020.61 1019.70 1018.98 1018.01 1017.26 1016.90 1016.53 1016.61 1016.81 1017.00 1017.56 1018.25 1019.01 1019.26 1019.65 1019.91 1020.34 1020.25 1020.30 1020.35
1029.85 1031.02 1032.06 1032.20 1032.06 1030.37 1026.56 1025.44 1025.42 1025.76 1025.60 1025.72 1026.02 1026.45 1026.49 1026.10 1025.22 1024.72 1023.91 1023.61 1023.02 1021.81 1021.10 1020.45 1019.66 1018.93 1018.04 1017.24 1016.40 1016.25 1016.05 1016.17 1016.35 1016.66 1017.17 1017.76 1018.38 1018.67 1019.12 1019.43 1019.68 1019.66 1019.68 1019.87
1029.77 1030.72 1031.75 1032.33 1032.17 1028.59 1026.44 1025.39 1025.33 1025.39 1025.40 1025.60 1026.06 1025.96 1025.52 1024.97 1023.63 1022.94 1022.50 1022.06 1021.47 1020.92 1020.24 1019.57 1019.07 1018.39 1017.66 1016.85 1016.09 1015.87 1015.70 1015.87 1016.04 1015.99 1016.47 1016.98 1017.41 1017.85 1018.47 1018.75 1019.02 1019.01 1019.13 1019.34
1030.29 1030.46 1031.35 1032.41 1031.74 1029.25 1026.02 1025.39 1024.75 1025.05 1024.77 1025.00 1025.18 1024.79 1024.49 1024.33 1023.71 1021.92 1021.98 1021.63 1020.53 1019.67 1018.99 1018.36 1017.75 1017.34 1016.87 1016.11 1015.51 1015.94 1015.96 1016.05 1015.41 1015.05 1015.25 1015.94 1016.62 1017.05 1017.51 1017.86 1018.17 1018.30 1018.57 1018.88
1031.05 1030.87 1030.55 1030.90 1030.44 1027.18 1025.30 1024.77 1024.33 1025.07 1025.24 1024.90 1024.95 1024.83 1024.56 1024.17 1023.75 1021.24 1020.99 1020.24 1019.88 1018.78 1017.77 1017.09 1016.83 1016.59 1015.82 1015.61 1014.81 1015.61 1015.78 1015.42 1014.96 1014.84 1015.04 1015.58 1016.06 1016.48 1016.66 1017.08 1017.58 1017.99 1018.14 1018.43
1030.71 1030.79 1030.80 1030.75 1029.60 1026.89 1024.85 1024.40 1025.05 1024.82 1024.21 1024.20 1024.17 1023.87 1023.35 1022.87 1021.90 1021.15 1019.82 1019.37 1018.60 1017.84 1016.73 1016.37 1016.01 1015.38 1014.90 1014.86 1014.30 1014.91 1014.76 1014.31 1014.43 1014.56 1014.73 1014.94 1015.27 1015.84 1016.21 1016.80 1017.36 1017.63 1017.74 1018.14
1030.13 1028.72 1028.88 1028.46 1025.85 1024.41 1024.13 1024.22 1023.90 1023.61 1023.90 1023.66 1023.43 1023.01 1022.60 1021.86 1020.92 1019.95 1019.06 1018.08 1017.18 1016.90 1016.42 1015.69 1015.38 1014.56 1013.80 1013.70 1013.78 1014.23 1013.31 1013.43 1013.69 1014.00 1014.32 1014.38 1014.65 1015.15 1015.42 1016.12 1016.69 1017.29 1017.46 1017.81
1028.78 1028.00 1027.62 1027.17 1024.77 1024.41 1023.81 1023.52 1023.63 1023.76 1023.60 1023.07 1022.59 1022.09 1021.55 1021.00 1020.08 1019.18 1018.42 1017.39 1016.55 1015.68 1015.12 1014.77 1014.25 1013.48 1012.60 1012.53 1012.47 1012.66 1012.62 1012.93 1013.23 1013.61 1013.67 1013.72 1014.11 1014.66 1015.03 1015.33 1015.77 1016.33 1016.73 1017.07
1027.64 1027.29 1026.57 1024.76 1024.41 1024.03 1023.75 1023.62 1023.36 1022.96 1022.70 1022.28 1021.72 1021.39 1020.82 1020.27 1019.33 1018.61 1017.72 1016.73 1015.89 1015.06 1014.16 1013.86 1013.01 1012.26 1011.55 1011.32 1011.11 1011.42 1011.50 1011.98 1012.63 1012.74 1013.00 1013.16 1013.38 1013.81 1014.31 1014.59 1014.81 1015.28 1015.51 1015.81
1026.18 1025.48 1025.59 1023.26 1023.39 1023.21 1022.86 1022.73 1022.27 1022.14 1021.72 1021.17 1020.79 1019.80 1019.32 1019.27 1018.72 1017.78 1016.81 1015.97 1015.25 1014.23 1013.34 1012.61 1011.75 1011.12 1010.27 1010.38 1010.06 1010.18 1010.44 1010.97 1011.78 1011.83 1012.07 1012.30 1012.61 1012.95 1013.48 1013.97 1014.45 1014.57 1014.85 1015.12
Wind_Speed
5 8 3 1 1 1 2 1 2 2 4 5 3 10 19 7 7 9 8 8 9 10 8 5 7 7 7 6 7 7 8 7 4 2 2 1 2 1 1 1 2 3 3 4
8 4 3 1 4 3 4 2 4 4 4 3 6 18 18 7 5 5 5 7 8 6 6 6 7 7 8 7 7 7 7 7 5 3 2 2 1 1 1 1 2 2 3 3
6 1 4 3 6 5 4 3 3 3 8 3 8 9 7 4 4 3 2 4 5 6 6 4 6 6 7 8 8 7 7 7 5 5 2 2 2 2 2 1 1 1 3 4
6 4 3 5 4 3 2 2 2 3 5 3 6 7 9 5 9 5 6 4 5 1 2 3 5 5 6 6 6 5 5 5 5 6 4 5 4 4 3 2 2 3 3 4
3 4 6 7 2 2 1 3 2 3 4 4 7 5 12 4 6 6 6 5 4 2 1 4 5 5 4 5 6 5 5 5 4 5 6 5 4 3 1 1 3 3 3 4
2 1 4 1 2 3 2 3 5 4 4 4 4 4 9 4 3 5 4 5 5 4 3 3 2 3 3 3 4 4 4 4 4 5 7 7 7 5 3 2 3 3 3 3
5 3 3 4 1 2 6 7 5 8 7 5 1 2 13 7 6 4 8 9 7 5 5 5 7 6 7 7 6 4 4 5 5 5 6 7 6 5 5 4 3 4 3 2
5 8 5 7 4 2 4 6 7 5 2 7 2 6 9 4 6 6 5 7 6 6 5 6 7 7 7 6 6 5 5 6 5 6 7 6 6 4 4 3 3 3 3 4
4 4 1 4 3 3 2 4 2 8 2 5 3 9 13 4 6 8 6 7 8 7 7 8 7 8 8 8 8 7 7 7 7 7 5 6 5 5 5 5 3 3 4 5
4 4 1 3 3 5 5 2 5 5 2 5 7 6 7 8 9 10 10 10 9 8 9 9 9 9 7 7 7 7 8 8 7 7 6 5 6 6 5 3 4 5 5 5
5 5 6 1 2 6 3 3 5 4 4 6 3 9 9 8 3 6 9 8 7 8 8 8 9 8 8 7 7 7 7 7 6 7 6 7 6 6 5 4 5 5 4 5
1 5 2 8 1 2 3 6 4 6 7 3 3 12 2 7 5 4 9 8 6 6 8 8 11 10 9 8 8 8 7 7 7 7 7 7 7 6 5 5 5 4 5 5
6 2 5 9 5 4 3 4 4 3 2 7 4 9 2 3 4 5 6 11 14 16 13 10 8 10 11 11 10 8 7 9 7 7 7 7 7 7 6 6 5 4 5 5
3 4 9 9 9 5 3 4 5 6 4 4 17 26 10 17 13 12 16 8 11 14 16 15 15 13 12 11 12 12 11 10 9 9 9 9 9 8 7 6 5 4 4 4
4 5 6 8 6 4 8 8 8 12 9 11 29 20 9 18 18 16 12 11 15 14 15 17 16 17 17 14 12 11 12 11 11 11 11 11 8 6 6 5 4 4 4 4
0 4 2 6 10 15 20 14 17 20 18 19 25 29 16 9 5 9 15 17 13 11 12 15 16 17 18 18 16 13 11 10 9 12 14 8 7 6 6 5 4 4 4 4
4 4 3 8 4 5 9 15 18 7 4 9 9 7 3 7 10 9 16 15 9 9 9 12 13 14 16 19 17 15 13 4 10 10 7 8 7 8 7 6 5 4 4 3
5 5 3 5 5 3 9 2 4 7 5 7 8 5 4 8 9 9 10 7 10 14 16 16 14 14 16 17 17 13 5 7 8 8 8 7 8 8 7 7 6 5 4 4
9 6 4 3 4 9 8 2 3 2 6 6 1 7 11 11 16 10 7 7 12 14 14 14 11 13 14 14 16 10 6 5 7 10 11 10 10 9 8 8 7 6 4 5
2 9 7 2 4 8 5 4 5 3 7 6 16 20 19 18 16 15 12 18 21 22 18 17 15 11 9 13 6 5 5 5 11 10 13 10 10 10 11 8 7 8 4 6
3 3 15 11 8 10 3 6 3 4 3 16 14 16 17 17 15 25 23 22 19 21 22 21 11 9 9 8 2 7 5 11 8 2 6 8 9 10 9 7 6 4 5 6
9 7 5 2 2 16 5 3 6 6 9 13 15 17 19 20 23 23 25 23 23 23 25 17 13 15 11 6 1 8 12 8 6 5 6 8 9 8 6 7 4 3 6 8
4 8 6 11 10 2 3 7 5 14 15 14 15 18 19 21 24 25 24 26 25 23 20 19 16 18 14 7 6 9 14 6 5 5 8 7 7 8 8 9 7 6 8 7
4 4 7 3 3 8 7 12 12 12 12 15 17 19 21 22 24 23 22 23 23 22 20 18 17 16 17 10 7 9 12 5 5 8 8 6 8 7 6 6 6 7 7 6
7 5 4 14 12 9 7 7 11 14 14 16 18 20 22 20 23 23 21 24 23 20 21 18 17 15 18 13 11 10 9 6 8 9 6 7 7 9 7 7 8 8 5 6
7 7 8 16 13 11 14 13 16 16 19 19 18 22 21 18 20 21 21 22 21 22 21 19 18 16 17 14 14 9 6 9 10 9 6 7 6 7 6 6 4 13 12 14
Wind_Direction
8 65 70 17 45 124 122 71 310 293 12 338 295 288 286 294 254 268 271 269 263 250 248 219 206 181 148 153 156 161 153 170 143 133 164 214 229 190 261 289 324 339 336 342
23 70 332 356 28 75 59 76 316 297 19 359 358 295 283 291 250 224 275 291 279 261 218 184 166 157 169 157 155 159 174 171 181 149 161 144 143 155 215 262 305 323 337 345
109 46 357 67 30 39 50 98 10 260 328 69 323 300 322 313 315 269 263 302 304 257 214 177 162 157 144 159 168 174 178 181 188 178 120 93 58 34 348 300 301 311 328 311
75 342 54 59 69 43 33 354 34 13 42 279 15 278 299 318 306 286 285 325 331 331 157 150 153 156 169 173 157 161 177 194 204 179 175 185 189 201 209 192 230 287 289 300
268 17 31 55 9 29 155 30 58 81 89 52 349 71 272 335 321 313 302 288 317 354 126 174 177 174 178 149 170 185 193 212 218 198 199 193 206 211 197 235 277 287 297 301
97 45 52 60 57 48 69 71 41 60 93 33 254 108 283 258 238 320 336 289 278 272 253 207 189 165 199 188 184 188 199 236 225 203 201 199 207 216 235 252 270 287 297 301
356 17 359 26 36 17 53 47 343 358 9 223 259 23 246 289 284 274 289 308 266 245 218 212 204 204 212 202 199 201 209 243 219 203 202 203 208 203 231 252 265 288 289 269
100 334 11 345 62 180 43 128 146 214 277 277 8 244 256 242 297 281 283 301 281 258 264 251 235 227 228 223 220 227 237 255 242 221 217 201 200 198 212 227 237 259 268 275
103 297 338 42 22 72 272 42 172 99 68 35 269 293 295 330 320 15 318 318 289 268 255 249 256 250 243 235 239 239 240 238 235 223 208 205 204 200 212 224 239 260 268 276
187 13 280 287 133 33 121 149 36 6 16 305 293 277 242 320 321 341 359 338 324 325 323 314 299 284 272 261 259 251 232 228 224 219 200 201 202 204 207 213 240 248 260 260
130 96 284 42 183 181 26 10 43 120 132 181 275 266 215 224 233 305 317 328 318 317 305 285 273 266 280 286 268 256 246 231 223 227 200 190 195 198 202 216 232 236 254 264
83 130 220 224 131 172 165 191 151 126 269 228 178 269 292 219 231 213 293 285 274 250 274 274 278 281 268 250 277 269 250 232 218 216 206 195 183 186 202 220 228 239 253 266
174 330 5 341 6 356 216 204 140 113 89 205 163 255 257 231 251 269 278 319 327 321 301 285 288 273 269 260 247 248 246 237 215 210 207 196 187 188 206 212 215 232 247 261
146 162 170 198 205 144 189 197 204 142 140 243 234 277 294 291 306 319 318 321 316 296 304 311 311 297 280 262 254 250 243 218 205 200 203 202 194 193 198 201 207 232 249 266
125 203 205 243 226 188 232 213 209 206 212 219 270 259 295 294 306 318 320 316 311 318 320 320 316 311 304 287 271 252 244 225 200 197 199 207 189 179 185 197 213 235 248 262
113 267 85 281 244 245 262 252 230 237 244 254 262 277 284 315 340 343 329 322 330 327 322 325 324 323 318 305 285 275 251 229 191 200 202 176 178 170 184 181 214 231 246 251
163 130 42 269 324 330 302 231 229 218 189 213 238 248 329 336 336 322 315 312 289 285 285 303 310 312 312 312 297 276 272 200 203 199 178 174 178 179 187 174 211 215 227 236
160 124 160 263 16 292 243 205 182 192 239 227 286 331 274 259 252 252 264 224 260 311 308 305 302 304 309 312 304 277 235 210 198 191 183 176 180 183 180 185 203 210 212 227
221 207 263 212 203 297 283 79 111 129 261 98 303 297 308 313 312 315 234 226 288 293 289 286 273 282 298 309 306 275 246 210 195 197 195 192 184 180 184 192 199 206 221 230
174 226 197 85 192 238 241 206 241 217 261 167 336 331 329 334 311 304 300 302 298 296 294 291 283 284 293 311 318 280 270 232 221 203 203 184 179 184 193 186 195 217 191 240
145 178 221 223 240 278 217 267 247 89 313 333 322 307 302 298 281 292 299 296 292 290 291 292 274 267 281 290 0 293 268 243 259 159 160 173 183 193 192 177 197 183 201 236
174 157 196 98 250 261 173 45 111 245 292 308 304 298 297 293 292 290 293 293 295 294 296 282 283 286 276 273 357 281 265 261 221 202 194 191 184 191 180 174 176 192 211 234
270 190 188 188 213 231 210 200 260 329 301 294 290 290 288 293 294 293 292 294 292 287 284 282 279 277 272 260 195 270 279 226 214 199 215 200 173 187 176 183 184 201 218 222
264 200 239 45 272 252 303 318 309 286 271 278 283 290 292 291 294 291 292 290 290 288 284 284 271 260 272 260 206 230 272 214 191 224 217 194 179 184 178 184 181 192 199 205
193 152 223 255 275 287 275 262 264 279 279 282 282 282 283 284 286 289 289 290 286 285 287 280 263 260 260 267 247 236 239 194 222 223 211 201 192 184 185 198 188 197 205 186
196 212 235 263 271 282 286 285 278 288 287 283 286 295 289 281 284 288 288 288 287 287 286 276 265 258 258 266 259 240 219 187 216 227 200 202 195 182 183 182 199 224 218 216